Home > Weather > Gaziantep > Past weeks

Flag for Turkey Weather for the Past 2 Weeks in Gaziantep, Turkey

Now
46 °F

Light rain. Fog.


Feels Like: 46 °F
Forecast: 44 / 53 °F
Wind: 1 mph from East

Location: Gaziantep Airport

Current Time: Feb 12, 2016 at 8:18:44 PM

Latest Report: Feb 12, 2016 at 7:50 PM


Visibility: 3 mi

Pressure: 30.24 "Hg (27.25 "Hg at 856m altitude)

Humidity: 93%

Dew point: 45 °F

Location of GaziantepLocation

Historic Weather in Gaziantep — Graph

°F

Gaziantep Temperature Yesterday

Maximum temperature yesterday: 50 °F (at 2:50 PM)
Minimum temperature yesterday: 30 °F (at 12:20 AM)
Average temperature yesterday: 42 °F

High & Low Weather Summary for the Past Weeks

 TemperatureHumidityPressure
High57 °F (Feb 3, 2:50 PM)100% (Feb 1, 6:20 AM)30.39 "Hg (Feb 1, 6:20 AM)
Low23 °F (Feb 3, 5:50 AM)15% (Feb 3, 2:50 PM)29.74 "Hg (Feb 7, 1:50 AM)
Average42 °F67%30.18 "Hg
* Reported Jan 28 6:20 PM — Feb 12 6:50 PM, Gaziantep, Weather by CustomWeather, © 2016

Note: Actual official high and low records may vary slightly from our data, if they occured in-between our weather recording intervals... More about our weather records

Advertising

Gaziantep Weather History for the Previous 24 Hours

 ConditionsComfort  
Time TempWeatherWind HumidityBarometerVisibility
6:50 PM
Fri, Feb 12
48 °FFog.No wind87%30.24 "Hg3 mi
6:20 PM48 °FFog.No wind87%30.24 "Hg3 mi
5:50 PM48 °FFog.No wind94%30.24 "Hg3 mi
5:20 PM48 °FFog.No wind94%30.24 "Hg3 mi
4:50 PM50 °FFog.No wind88%30.24 "Hg3 mi
4:20 PM50 °FFog.2 mph82%30.21 "Hg3 mi
3:50 PM50 °FFog.2 mph82%30.21 "Hg3 mi
3:20 PM50 °FFog.2 mph82%30.21 "Hg3 mi
2:50 PM50 °FFog.2 mph82%30.21 "Hg3 mi
2:20 PM50 °FFog.2 mph82%30.21 "Hg3 mi
1:50 PM50 °FFog.3 mph82%30.21 "Hg3 mi
1:20 PM48 °FLight rain. Fog.1 mph87%30.21 "Hg3 mi
12:50 PM48 °FLight rain. Fog.1 mph87%30.21 "Hg2 mi
12:20 PM48 °FLight rain. Fog.No wind87%30.21 "Hg2 mi
11:50 AM48 °FLight rain. Fog.2 mph82%30.24 "Hg2 mi
11:20 AM50 °FMostly cloudy.2 mph76%30.24 "HgN/A
10:50 AM48 °FMostly cloudy.1 mph82%30.24 "Hg4 mi
10:20 AM48 °FMostly cloudy.1 mph82%30.24 "Hg4 mi
9:50 AM48 °FMostly cloudy.No wind76%30.24 "Hg4 mi
9:20 AM48 °FFog.No wind76%30.24 "Hg3 mi
8:50 AM45 °FFog.No wind81%30.27 "Hg3 mi
8:20 AM43 °FFog.No wind87%30.24 "Hg3 mi
7:50 AM43 °FFog.No wind81%30.24 "Hg3 mi
7:20 AM41 °FFog.No wind87%30.24 "Hg2 mi
6:50 AM39 °FFog.No wind93%30.24 "Hg3 mi
5:50 AM39 °FFog.3 mph93%30.21 "Hg3 mi
5:20 AM39 °FMostly cloudy.No wind87%30.21 "Hg4 mi
4:50 AM41 °FMostly cloudy.No wind87%30.21 "Hg4 mi
4:20 AM39 °FMostly cloudy.No wind93%30.21 "Hg4 mi
3:50 AM39 °FMostly cloudy.3 mph87%30.21 "Hg4 mi
3:20 AM39 °FMostly cloudy.3 mph87%30.18 "Hg4 mi
2:50 AM41 °FMostly cloudy.No wind87%30.18 "Hg4 mi
2:20 AM39 °FMostly cloudy.No wind93%30.18 "Hg4 mi
1:50 AM39 °FMostly cloudy.No wind93%30.21 "Hg4 mi
1:20 AM39 °FMostly cloudy.No wind87%30.21 "Hg4 mi
12:50 AM39 °FPartly cloudy.3 mph87%30.21 "Hg4 mi
11:20 PM
Thu, Feb 11
43 °FPartly cloudy.No wind81%30.21 "Hg4 mi
10:50 PM43 °FPartly cloudy.No wind81%30.21 "Hg5 mi
10:20 PM43 °FPartly cloudy.No wind87%30.21 "Hg4 mi
9:50 PM45 °FPartly cloudy.No wind81%30.21 "HgN/A
9:20 PM45 °FPartly cloudy.No wind81%30.21 "HgN/A
8:50 PM45 °FPartly cloudy.No wind81%30.21 "HgN/A
8:20 PM45 °FPartly cloudy.2 mph81%30.21 "HgN/A
Weather by CustomWeather, © 2016

See weather overviewHow to use our weather pages